CSN657 ZGGG-KSFO

Flight info

Callsign CSN657
Flight time N/A
Altitude 33100
Route LMN1 LMN G471 EGEDA/K0917S1040 G471 PLT/K0922S1010 A599 SHR/K0906S1070 A599 JTN G327 LAMEN/N0487F350 A593 SADLI Y590 BEDAR Y591 FUE Y23 KASTE Y81 TASOT Y57 POROT OTR11 LEPKI/N0481F370 DCT 41N160E 4558N16955E/N0490F380 4556N16912E/N0489F370 46N170E 48N180E 49N170W/N0481F390 48N160W 47N150W 4620N14232W/N0476F400 4633N14234W/N0476F390 46N140W 43N130W DCT LATNE DCT AMAKR DCT STINS
Aircraft B772/H-SDE2E3FGHIJ5LORVWXY/LB1D1

Departure

Time 2026-04-30 22:05
Airport Guangzhou Baiyun International Airport (ZGGG)

Arrival

Time N/A
Airport San Francisco International Airport (KSFO)
Time Latitude Longitude Altitude Speed Heading
2026-04-30 21:38 23.38337 113.30052 63 ft 0 kts 52°
2026-04-30 21:38 23.38333 113.30045 63 ft 0 kts 52°
2026-04-30 21:56 23.38320 113.30028 54 ft 4 kts 52°
2026-04-30 21:56 23.38306 113.30008 54 ft 2 kts 52°
2026-04-30 21:57 23.38292 113.29988 54 ft 4 kts 60°
2026-04-30 21:57 23.38290 113.29967 54 ft 4 kts 130°
2026-04-30 21:57 23.38308 113.29949 54 ft 4 kts 142°
2026-04-30 21:57 23.38327 113.29933 54 ft 1 kts 141°
2026-04-30 21:58 23.38328 113.29932 54 ft 0 kts 141°
2026-04-30 21:59 23.38323 113.29936 54 ft 3 kts 141°
2026-04-30 22:00 23.38228 113.30017 57 ft 14 kts 142°
2026-04-30 22:00 23.38129 113.30249 55 ft 20 kts 128°
2026-04-30 22:00 23.37989 113.30245 58 ft 23 kts 193°
2026-04-30 22:01 23.37824 113.30201 55 ft 23 kts 194°
2026-04-30 22:01 23.37681 113.30236 54 ft 23 kts 148°
2026-04-30 22:01 23.37615 113.30398 57 ft 24 kts 102°
2026-04-30 22:01 23.37572 113.30578 62 ft 24 kts 103°
2026-04-30 22:02 23.37483 113.30712 57 ft 24 kts 186°
2026-04-30 22:02 23.37320 113.30668 59 ft 24 kts 195°
2026-04-30 22:02 23.37155 113.30623 57 ft 24 kts 194°
2026-04-30 22:02 23.37024 113.30607 55 ft 14 kts 147°
2026-04-30 22:03 23.36988 113.30704 54 ft 14 kts 103°
2026-04-30 22:03 23.37022 113.30788 53 ft 7 kts 15°
2026-04-30 22:03 23.37023 113.30788 53 ft 0 kts 14°
2026-04-30 22:03 23.37032 113.30791 55 ft 8 kts 14°
2026-04-30 22:04 23.37265 113.30853 54 ft 70 kts 14°
2026-04-30 22:04 23.37957 113.31040 54 ft 136 kts 14°
2026-04-30 22:04 23.40412 113.31704 592 ft 203 kts 14°
2026-04-30 22:05 23.41810 113.32061 1366 ft 210 kts 13°
2026-04-30 22:05 23.43245 113.32427 2001 ft 214 kts 15°
2026-04-30 22:05 23.44714 113.32836 2371 ft 222 kts 15°
2026-04-30 22:05 23.46266 113.33263 2584 ft 239 kts 14°
2026-04-30 22:06 23.47921 113.33721 2870 ft 254 kts 15°
2026-04-30 22:06 23.50743 113.35983 3622 ft 265 kts 65°
2026-04-30 22:06 23.51416 113.37852 4065 ft 268 kts 70°
2026-04-30 22:07 23.52087 113.39735 4606 ft 271 kts 69°
2026-04-30 22:07 23.52781 113.41642 5188 ft 273 kts 69°
2026-04-30 22:07 23.53487 113.43588 5638 ft 279 kts 68°
2026-04-30 22:07 23.54157 113.45596 6059 ft 284 kts 77°
2026-04-30 22:08 23.54493 113.47744 6477 ft 291 kts 84°
2026-04-30 22:08 23.54710 113.49947 6950 ft 293 kts 84°
2026-04-30 22:08 23.54932 113.52160 7449 ft 295 kts 84°
2026-04-30 22:08 23.55182 113.54384 7916 ft 298 kts 83°
2026-04-30 22:09 23.55454 113.56646 8382 ft 301 kts 83°
2026-04-30 22:09 23.55735 113.58925 8842 ft 304 kts 82°
2026-04-30 22:09 23.56020 113.61216 9294 ft 307 kts 82°
2026-04-30 22:09 23.56310 113.63541 9752 ft 310 kts 82°
2026-04-30 22:10 23.56603 113.65881 10172 ft 313 kts 82°
2026-04-30 22:10 23.56900 113.68257 10319 ft 328 kts 82°
2026-04-30 22:10 23.57214 113.70778 10437 ft 343 kts 82°
2026-04-30 22:10 23.57542 113.73418 10557 ft 358 kts 82°
2026-04-30 22:11 23.58240 113.79027 11059 ft 383 kts 82°
2026-04-30 22:11 23.58599 113.81931 11541 ft 389 kts 82°
2026-04-30 22:11 23.58962 113.84866 12168 ft 391 kts 82°
2026-04-30 22:12 23.59326 113.87810 12839 ft 393 kts 82°
2026-04-30 22:12 23.59688 113.90736 13437 ft 396 kts 82°
2026-04-30 22:12 23.60057 113.93738 14001 ft 400 kts 82°
2026-04-30 22:12 23.60428 113.96756 14495 ft 404 kts 82°
2026-04-30 22:13 23.60804 113.99815 14984 ft 408 kts 82°
2026-04-30 22:13 23.61182 114.02898 15468 ft 412 kts 82°
2026-04-30 22:13 23.61563 114.06010 15955 ft 416 kts 82°
2026-04-30 22:13 23.61946 114.09151 16424 ft 420 kts 82°
2026-04-30 22:14 23.62333 114.12324 16890 ft 424 kts 82°
2026-04-30 22:14 23.62589 114.14436 17187 ft 426 kts 82°
2026-04-30 22:14 23.63115 114.18757 17778 ft 432 kts 82°
2026-04-30 22:14 23.63376 114.20910 18064 ft 434 kts 82°
2026-04-30 22:15 23.63774 114.24195 18480 ft 438 kts 82°
2026-04-30 22:15 23.64173 114.27493 18910 ft 439 kts 82°
2026-04-30 22:15 23.64765 114.30737 19217 ft 436 kts 68°
2026-04-30 22:15 23.66254 114.33617 19418 ft 439 kts 48°
2026-04-30 22:16 23.68470 114.35887 19791 ft 433 kts 34°
2026-04-30 22:16 23.70906 114.37838 20140 ft 436 kts 34°
2026-04-30 22:17 23.78250 114.43745 21325 ft 441 kts 34°
2026-04-30 22:17 23.80745 114.45775 21709 ft 443 kts 34°
2026-04-30 22:17 23.85670 114.49809 22426 ft 447 kts 34°
2026-04-30 22:18 23.88163 114.51858 22782 ft 449 kts 34°
2026-04-30 22:18 23.93181 114.55987 23422 ft 454 kts 34°
2026-04-30 22:19 23.98259 114.60169 24019 ft 458 kts 34°
2026-04-30 22:19 24.00809 114.62271 24304 ft 459 kts 34°
2026-04-30 22:19 24.05901 114.66471 24840 ft 463 kts 34°
2026-04-30 22:20 24.08476 114.68597 25117 ft 464 kts 34°
2026-04-30 22:20 24.13639 114.72862 25650 ft 468 kts 34°
2026-04-30 22:20 24.16259 114.75028 25908 ft 471 kts 34°
2026-04-30 22:21 24.18878 114.77195 26149 ft 473 kts 34°
2026-04-30 22:21 24.21509 114.79372 26419 ft 475 kts 34°
2026-04-30 22:21 24.24123 114.81534 26714 ft 476 kts 34°
2026-04-30 22:21 24.26896 114.83528 26981 ft 475 kts 26°
2026-04-30 22:22 24.29865 114.85076 27238 ft 474 kts 19°
2026-04-30 22:22 24.32985 114.86259 27512 ft 472 kts 12°
2026-04-30 22:22 24.36197 114.87056 27787 ft 472 kts
2026-04-30 22:22 24.39423 114.87800 28039 ft 474 kts
2026-04-30 22:23 24.42653 114.88556 28293 ft 476 kts
2026-04-30 22:23 24.45857 114.89325 28539 ft 478 kts
2026-04-30 22:23 24.49108 114.90122 28779 ft 480 kts
2026-04-30 22:23 24.52385 114.90932 29062 ft 481 kts
2026-04-30 22:24 24.55653 114.91740 29302 ft 482 kts
2026-04-30 22:24 24.58934 114.92552 29549 ft 484 kts
2026-04-30 22:24 24.62235 114.93371 29798 ft 486 kts
2026-04-30 22:24 24.65529 114.94191 30091 ft 486 kts
2026-04-30 22:25 24.68807 114.95008 30360 ft 487 kts
2026-04-30 22:25 24.72113 114.95831 30595 ft 488 kts
2026-04-30 22:25 24.75429 114.96657 30802 ft 489 kts
2026-04-30 22:25 24.78758 114.97480 30982 ft 491 kts
2026-04-30 22:26 24.85388 114.99094 31379 ft 493 kts
2026-04-30 22:26 24.88796 114.99923 31563 ft 494 kts
2026-04-30 22:26 24.92164 115.00742 31728 ft 496 kts
2026-04-30 22:27 24.95533 115.01565 31958 ft 496 kts
2026-04-30 22:27 24.98895 115.02388 32255 ft 494 kts
2026-04-30 22:27 25.05593 115.04029 32802 ft 492 kts
2026-04-30 22:28 25.12283 115.05667 33124 ft 494 kts
2026-04-30 22:28 25.15657 115.06494 33144 ft 496 kts
2026-04-30 22:29 25.28997 115.09773 33197 ft 488 kts
2026-04-30 22:30 25.41663 115.07836 33217 ft 457 kts 330°